Location: Katowice
(50.2611°N, 19.0242°E)
Time: 00:08:33
(UTC+02:00)

ISS - Pass Details

Date: 28 March 2019
Orbit: 408 x 410 km, 51.6° (Epoch: 23 April)

Event Time Altitude Azimuth Distance (km) Brightness Sun altitude
Rises 19:18:54 0° 264° (W) 2,335 1.3 -11.7°
Reaches altitude 10° 19:20:59 10° 266° (W) 1,474 0.2 -12.0°
Maximum altitude 19:24:17 73° 351° (N) 433 -3.7 -12.5°
Enters shadow 19:26:35 18° 75° (ENE) 1,072 -2.2 -12.8°
